Regional Weather Roundup
Issued by NWS

Home | Current Version | Previous Version | Text Only | Print | Product List | Glossary On
Versions: 1 2 3 4 5 6 7 8 9 10 11 12 13 14 15 16 17 18 19 20 21 22 23 24 25 26 27 28 29 30 31 32 33 34 35 36 37 38 39 40 41 42 43 44 45 46 47 48 49 50
000
ASUS43 KOAX 260202
RWRNE

WEATHER ROUNDUP FOR NEBRASKA
NATIONAL WEATHER SERVICE OMAHA NE
900 PM CDT SAT MAR 25 2017

NOTES: SATELLITE DATA IS BEING USED TO AUGMENT CLOUD COVER ABOVE
       12000 FEET.
       "FAIR" INDICATES FEW OR NO CLOUDS BELOW 12,000 FEET WITH NO
       SIGNIFICANT WEATHER AND/OR OBSTRUCTIONS TO VISIBILITY.

  * THESE STATIONS DO NOT REPORT WEATHER SUCH AS RAIN...SNOW OR FOG.

NEZ001>004-019>022-054>056-260300-
NEBRASKA PANHANDLE

CITY           SKY/WX    TMP DP  RH WIND       PRES   REMARKS
SCOTTSBLUFF    CLOUDY    53  33  46 E6        29.81S
ALLIANCE       CLOUDY    52  31  44 S13       29.82S
CHADRON        CLOUDY    54  36  50 SE10      29.78S
KIMBALL        CLOUDY    50  35  56 S8        29.85F
SIDNEY         CLOUDY    47  32  56 SE9       29.86S
$$

NEZ057>060-069>072-079>082-260300-
SOUTHWEST NEBRASKA

CITY           SKY/WX    TMP DP  RH WIND       PRES   REMARKS
NORTH PLATTE   CLOUDY    47  42  83 SE14      29.89S
IMPERIAL       CLOUDY    47  31  53 SE3       29.87F
LEXINGTON      CLOUDY    44  40  84 CALM      29.92S
MCCOOK         CLOUDY    45  41  86 E10       29.90S
OGALLALA       CLOUDY    48  32  53 E6        29.86F
$$

NEZ005>010-023>029-035>040-094-260300-
NORTH CENTRAL NEBRASKA

CITY           SKY/WX    TMP DP  RH WIND       PRES   REMARKS
VALENTINE      CLOUDY    48  35  60 SE13      29.88R
AINSWORTH      CLEAR     41  39  94 SE9       29.91R
BROKEN BOW     CLOUDY    45  41  86 SE6       29.92R
O`NEILL        CLOUDY    39  39  98 E6        29.96R FOG     WCI  35
ORD            CLOUDY    40  37  89 NE6       29.94R FOG
THEDFORD       CLOUDY    47  39  75 SE9       29.89S
$$

NEZ041-046>049-061>064-073>077-083>087-260300-
SOUTH CENTRAL NEBRASKA

CITY           SKY/WX    TMP DP  RH WIND       PRES   REMARKS
GRAND ISLAND   CLOUDY    38  38 100 NE7       29.95R FOG     WCI  33
AURORA         FOG       38  38 100 NE10      29.94R VSB 1/2 WCI  31
HASTINGS       CLOUDY    40  38  93 NE8       29.95R FOG     WCI  34
HEBRON         CLOUDY    40  38  95 NE9       29.94F FOG     WCI  33
HOLDREGE       CLOUDY    42  40  93 E3        29.93S FOG
KEARNEY *      CLOUDY    41  37  87 NE6       29.95R
YORK           CLOUDY    39  39 100 NE10      29.95S FOG     WCI  32
$$

NEZ011>018-030>034-042>045-260300-
NORTHEAST NEBRASKA

CITY           SKY/WX    TMP DP  RH WIND       PRES   REMARKS
NORFOLK        CLOUDY    38  37  97 E9        29.95S FOG     WCI  31
ALBION         CLOUDY    40  38  92 NE6       29.95S FOG
BLAIR          CLOUDY    40  39  94 N9        29.94R WCI  34
FREMONT        CLOUDY    40  40  99 N6        29.96S
TEKAMAH        CLOUDY    41  38  89 N9        29.96S
WAYNE          CLOUDY    39  39  98 NE7       29.97S FOG     WCI  34
$$

NEZ050>053-065>068-078-088>093-260300-
SOUTHEAST NEBRASKA

CITY           SKY/WX    TMP DP  RH WIND       PRES   REMARKS
LINCOLN        LGT RAIN  41  39  93 N10       29.96R
OMAHA EPPLEY   CLOUDY    42  37  82 N8        29.94R
BEATRICE       CLOUDY    41  40  97 N9        29.94R
FALLS CITY     CLOUDY    43  41  93 N7        29.92R
NEBRASKA CITY  CLOUDY    41  41 100 N9        29.93R
PLATTSMOUTH    CLOUDY    41  38  91 N6        29.94R FOG
$$

NEZ044-045-051>053-067-260300-
OMAHA AREA

CITY           SKY/WX    TMP DP  RH WIND       PRES   REMARKS
OMAHA EPPLEY   CLOUDY    42  37  82 N8        29.94R
BLAIR          CLOUDY    40  39  94 N9        29.94R WCI  34
FREMONT        CLOUDY    40  40  99 N6        29.96S
MILLARD        CLOUDY    43  41  91 N3        29.95R
OFFUTT AFB     CLOUDY    41  39  92 N7        29.94R
PLATTSMOUTH    CLOUDY    41  38  91 N6        29.94R FOG
WAHOO          DRIZZLE   40  39  95 N8        29.95S WCI  35
$$




USA.gov is the U.S. government's official web portal to all federal, state and local government web resources and services.